Dewpoint
66 65 65 66 66 67 68 68 68 67 66 64 64 64 63 63 62 61 60 61 60 61 61 61 60 61 61 60 60 60 60 60 60 60 61 62 62 65 67 67 67 67 65 65 64 64 63 63 63 61 60 60 60 59 58 59 59 60 60 60 61 63 64 65 66 65 64 63 63 63 62 61 61 60 60 59 59 59 58 58 57 57 56 56 55
66 65 65 65 66 66 67 67 67 67 66 65 64 63 63 62 61 61 60 60 59 60 60 60 60 61 61 60 60 61 61 60 60 60 61 62 62 63 67 66 66 66 66 65 64 64 64 63 63 62 61 61 60 59 58 59 59 60 60 61 62 63 64 65 65 64 63 63 63 63 62 62 61 61 60 59 59 58 58 57 57 57 56 55 55
66 66 65 65 65 65 66 66 66 66 66 65 64 63 63 63 62 61 60 59 59 59 60 59 59 60 61 61 61 60 60 60 60 60 61 62 62 63 65 67 66 65 65 65 66 64 64 63 63 63 62 61 61 60 60 58 59 59 61 61 62 63 64 65 66 65 63 63 63 63 62 61 60 59 59 59 58 58 57 57 57 56 55 55 54
66 65 65 65 65 65 65 65 65 65 66 66 65 65 63 62 61 61 60 59 59 59 59 59 58 59 60 61 61 61 60 60 60 60 61 61 62 62 63 65 66 65 65 65 65 66 64 64 63 63 63 62 62 61 61 59 59 59 61 61 61 62 63 64 66 64 63 63 62 63 62 61 60 59 59 58 58 57 57 57 56 56 55 55 54
66 66 66 64 64 65 64 65 65 65 65 66 66 65 65 64 64 63 63 61 60 60 59 58 59 59 60 60 61 61 60 60 60 60 60 61 62 62 62 63 64 65 64 65 65 65 66 64 64 64 63 62 62 62 62 61 59 59 60 61 62 62 63 64 66 64 63 62 62 63 62 61 59 59 59 58 57 57 57 56 56 55 55 55 54
65 65 65 64 63 64 65 65 65 65 64 65 65 65 65 64 64 63 64 62 61 61 59 57 58 59 60 60 61 60 59 60 59 60 60 61 62 62 62 62 63 63 63 66 65 64 65 66 64 64 64 63 62 62 62 61 61 60 60 61 62 62 63 64 66 64 63 62 62 62 62 61 60 59 58 58 57 57 57 56 56 55 55 54 54
64 64 64 64 64 64 65 65 65 65 64 64 65 64 64 64 64 63 62 62 61 61 59 57 57 59 60 60 60 60 59 59 60 60 60 60 61 62 62 62 62 62 62 62 65 65 64 65 66 65 64 63 63 62 62 61 61 60 60 61 62 62 63 64 65 65 63 63 62 62 62 61 60 59 58 57 57 57 56 56 56 55 55 54 54
64 63 63 63 64 65 66 65 65 65 64 64 64 64 64 64 64 64 62 62 62 62 60 58 57 58 59 60 60 60 59 59 59 60 60 61 61 61 61 61 61 61 63 62 61 63 65 64 65 65 65 64 63 63 63 61 61 61 60 60 62 62 63 64 64 65 64 64 62 62 61 61 60 59 58 58 57 57 56 56 56 55 55 54 53
65 64 62 63 64 64 63 64 65 65 65 64 64 64 64 64 64 64 63 62 62 62 60 58 57 57 58 59 59 60 59 59 59 59 61 61 61 61 61 61 61 64 62 61 61 61 63 64 64 65 65 65 64 63 63 62 61 62 60 60 62 62 63 64 64 65 65 64 63 62 61 60 59 59 58 57 57 57 56 56 55 55 54 54 53
66 66 64 64 64 63 64 64 65 64 64 65 65 64 64 64 64 63 64 63 63 62 61 60 59 57 57 57 58 59 59 59 59 61 60 61 61 61 60 61 61 61 61 61 61 60 60 62 64 64 64 64 64 64 63 63 62 61 61 61 61 63 62 64 65 66 65 63 63 62 61 60 59 59 59 58 57 57 56 56 55 55 54 54 54
63 65 65 65 64 63 63 64 64 63 64 64 64 65 64 64 63 63 64 65 64 62 62 62 62 59 57 57 57 58 59 59 59 60 60 61 61 61 61 60 60 60 60 60 60 60 60 60 61 63 64 64 64 65 64 63 63 61 61 61 61 62 62 62 64 66 65 63 63 62 61 60 60 59 59 58 58 57 57 56 56 55 54 54 54
59 60 62 63 63 63 61 61 61 63 63 63 63 65 64 63 62 63 63 63 64 64 63 62 62 60 58 58 57 57 58 59 59 59 59 59 61 62 61 61 61 60 60 60 60 60 60 60 61 62 63 64 64 64 64 64 64 63 62 62 60 61 62 62 64 66 65 64 63 62 61 61 60 59 59 58 58 57 57 56 56 55 55 54 54
57 57 59 61 60 61 60 59 60 62 62 62 63 64 64 64 64 63 63 61 62 64 64 63 61 59 59 58 58 58 57 58 57 58 59 59 59 61 61 61 61 61 60 60 60 60 60 60 60 61 61 62 63 63 63 63 63 64 63 62 61 61 62 61 63 64 65 64 63 63 62 61 60 60 59 58 57 57 57 56 55 55 55 54 53
58 57 56 56 57 58 58 60 60 60 62 63 63 64 64 63 63 61 63 62 62 63 63 62 59 58 57 56 56 57 57 56 56 56 57 58 59 59 60 61 61 61 61 61 60 60 60 60 60 61 60 61 62 63 63 62 62 63 64 63 62 61 61 61 62 63 66 64 63 63 62 61 60 60 59 58 57 57 57 56 55 55 55 54 54
54 58 56 56 56 56 57 58 59 61 59 59 59 60 61 62 62 61 60 61 61 63 63 62 59 59 58 57 55 54 55 54 55 55 55 56 58 58 59 59 61 62 62 61 61 60 59 59 60 60 60 60 61 62 62 62 62 62 64 64 63 63 61 61 61 61 65 65 63 63 62 61 60 60 59 58 57 57 56 56 55 55 55 54 53
53 55 55 55 54 55 54 55 56 58 57 57 58 59 59 60 62 62 61 60 60 60 62 62 61 59 56 57 55 52 51 52 53 54 55 55 55 57 58 58 59 59 61 61 61 61 60 59 59 60 60 60 60 61 62 62 62 62 62 63 64 64 62 61 61 61 61 65 64 63 63 61 60 60 59 58 57 57 56 55 55 54 54 54 53
53 54 55 53 53 53 55 55 55 55 55 55 55 56 57 59 61 62 62 61 60 60 61 62 62 62 59 56 53 52 52 53 54 53 55 54 54 54 56 57 57 58 58 60 61 61 61 60 59 59 59 60 60 60 61 62 61 62 62 62 63 64 65 63 62 61 61 64 65 64 63 62 61 60 59 59 58 57 56 55 54 54 54 53 53
51 53 55 54 53 53 54 54 54 55 55 54 54 55 55 56 59 60 60 61 61 61 61 61 62 61 61 60 58 54 55 56 53 51 55 56 55 54 54 55 56 57 57 57 58 59 60 60 60 59 59 59 60 59 60 61 62 61 61 61 61 61 61 62 64 63 62 61 65 64 64 63 61 60 60 59 58 57 56 55 54 54 54 53 53
51 51 54 54 53 53 53 54 55 55 55 54 54 54 55 56 56 56 58 59 61 60 60 60 61 61 61 61 61 60 60 57 54 53 52 53 55 57 56 55 54 55 56 57 57 57 58 59 60 60 59 59 59 59 59 60 61 61 61 60 59 59 58 58 60 64 63 62 63 65 64 63 61 60 60 59 58 57 56 56 55 54 54 53 53
50 51 52 54 53 52 52 53 54 55 55 54 53 53 54 55 56 55 55 57 58 58 59 60 58 59 61 60 59 60 61 60 59 57 56 54 55 56 56 57 57 56 55 55 56 56 57 57 58 59 59 59 59 59 59 59 60 61 61 59 59 59 57 57 56 56 59 63 61 66 65 64 62 60 59 59 59 57 57 56 55 55 54 53 53
51 51 51 54 54 52 51 51 52 53 54 53 53 53 53 53 53 54 54 55 56 57 57 57 58 58 58 59 60 61 61 61 60 60 57 55 55 55 55 56 56 57 57 57 56 56 57 57 57 58 59 59 59 59 59 60 60 60 60 59 58 58 57 56 55 55 54 58 62 64 66 65 63 61 60 59 58 58 57 57 55 55 54 53 52
48 50 51 52 51 51 50 51 52 53 53 51 51 51 51 52 52 52 53 53 54 55 55 55 56 57 57 57 57 58 59 60 60 60 59 58 55 56 56 55 55 55 56 57 58 57 56 56 57 57 58 59 59 60 60 60 60 60 60 59 58 57 56 55 54 53 54 56 61 63 65 65 64 62 61 59 59 58 58 57 56 56 55 54 53
49 49 50 50 51 52 51 51 52 54 52 50 50 50 50 50 50 50 51 51 52 53 53 54 54 54 55 56 56 56 56 56 57 59 58 57 57 57 57 57 57 56 57 57 57 58 57 56 55 57 57 58 59 60 60 60 60 59 59 59 58 57 56 54 54 53 53 57 60 63 64 65 64 63 62 60 59 59 58 58 57 56 56 55 55
49 49 49 50 50 49 50 49 50 48 49 49 50 50 50 49 49 50 49 50 51 52 51 51 52 53 53 54 55 56 56 57 58 59 58 58 58 57 57 58 57 57 57 58 58 57 58 57 55 55 56 57 58 59 60 60 60 59 59 59 58 56 55 54 54 54 52 56 58 61 64 65 64 64 63 61 60 59 59 59 57 56 56 56 55
48 48 48 50 49 48 47 47 48 49 49 49 49 49 48 48 48 48 48 49 50 50 50 49 50 51 51 53 54 54 55 57 58 58 59 59 58 56 57 58 56 57 57 57 57 59 58 57 58 58 56 55 57 57 58 59 60 59 58 58 57 56 55 54 54 53 53 52 55 58 62 65 64 64 63 61 61 59 59 58 56 54 55 56 55
48 48 49 49 49 50 48 47 48 49 49 48 48 48 48 48 48 48 48 48 48 48 48 48 49 49 50 51 52 53 54 55 56 57 58 58 57 57 56 57 57 56 56 55 57 56 58 58 58 58 58 58 57 59 59 58 58 58 58 59 57 56 55 54 53 53 52 51 51 53 56 60 62 62 62 61 60 57 55 54 53 52 52 53 55
49 49 50 48 48 47 47 47 47 47 47 46 47 46 46 47 49 48 48 48 47 48 47 47 48 48 48 49 50 51 52 53 54 55 57 57 57 57 56 55 55 56 55 56 56 57 56 58 59 58 58 57 57 58 58 58 58 57 56 58 59 55 54 54 53 53 51 51 50 51 53 56 58 58 57 57 55 55 55 55 53 52 51 51 52
47 48 48 48 47 48 48 47 47 47 47 47 46 46 46 46 46 45 45 49 46 46 46 46 46 46 47 48 48 49 50 51 53 54 54 54 55 56 56 56 54 52 54 54 54 55 57 58 59 60 60 59 57 56 57 57 56 56 58 58 59 58 54 53 53 52 51 51 50 50 52 54 55 54 55 56 56 56 55 55 54 52 51 51 51
48 48 48 47 47 47 46 47 46 46 46 47 46 46 45 45 45 44 44 45 47 45 46 45 45 46 46 46 47 48 48 49 50 50 51 52 53 54 56 55 55 53 53 53 53 52 53 58 56 57 60 60 60 59 57 55 55 56 56 57 58 59 56 54 52 52 52 51 50 50 51 53 54 54 55 56 56 56 55 54 53 52 51 51 52
49 49 48 47 47 51 46 46 45 46 46 45 45 45 44 44 44 44 44 44 44 44 45 45 45 46 46 45 45 45 46 47 48 48 49 50 51 52 52 54 56 54 54 53 54 54 54 54 57 57 57 59 60 60 59 58 55 55 55 57 57 58 55 53 52 52 51 51 50 50 50 52 53 54 54 56 55 55 54 53 53 52 51 51 50
50 48 47 47 47 46 45 45 45 45 44 44 46 44 44 43 44 44 44 44 44 43 44 44 45 45 44 43 44 44 45 45 45 46 47 48 49 50 50 52 52 53 53 53 51 54 55 55 56 57 58 57 58 59 59 59 57 56 56 56 57 55 54 54 52 52 51 51 50 50 50 52 52 52 53 55 54 54 53 53 54 52 51 50 49
48 48 47 47 47 45 45 45 44 44 44 44 44 43 43 43 43 44 44 44 44 43 44 44 45 44 44 43 43 44 44 44 44 45 46 46 47 48 49 49 50 52 53 53 52 51 55 57 57 57 57 57 58 58 58 58 58 56 57 56 56 55 55 56 52 51 51 50 50 50 50 51 52 52 52 53 53 52 52 52 53 52 50 49 48
47 46 46 45 45 45 44 45 43 43 43 42 42 43 42 42 42 42 43 43 43 43 45 44 44 44 44 44 44 44 44 44 44 45 45 45 46 46 47 49 49 50 51 51 50 50 52 56 57 57 57 57 57 57 58 58 58 57 56 56 55 55 55 55 55 51 50 50 49 49 49 50 51 51 51 51 51 51 51 51 51 50 49 49 46
46 46 45 44 44 44 43 43 42 43 43 42 42 41 42 42 41 43 43 42 42 43 43 43 43 44 44 44 44 44 44 44 44 44 44 44 45 45 45 46 47 48 51 51 51 51 50 53 55 57 57 56 57 56 57 57 57 57 56 56 55 55 54 54 55 55 50 50 49 49 49 50 50 50 51 50 50 50 50 50 50 48 48 47 45
45 45 45 45 44 43 42 42 42 42 42 42 42 42 42 42 41 41 43 42 42 42 42 42 43 43 43 44 43 44 44 44 44 44 44 44 44 44 44 45 46 46 48 50 50 49 50 50 53 54 55 56 57 58 58 58 58 57 56 56 56 55 54 53 53 54 50 49 48 48 48 49 50 50 50 50 50 49 49 49 49 47 46 45 44
45 45 45 44 44 43 43 42 41 41 41 42 42 41 41 41 41 41 41 41 41 42 42 42 42 43 43 43 43 43 43 43 43 43 44 44 44 44 44 44 44 45 46 47 49 49 49 50 51 53 56 56 56 57 58 57 57 57 56 56 54 55 55 54 53 53 51 48 48 48 49 49 49 50 50 50 50 49 49 49 48 47 45 44 43
44 45 45 43 43 42 42 42 41 40 41 41 40 40 40 41 41 41 41 41 41 41 42 42 44 44 43 43 43 42 42 41 41 42 42 42 43 44 43 43 44 44 45 46 47 50 50 48 48 50 53 55 56 56 57 57 56 54 53 54 55 55 54 53 53 53 51 48 48 48 48 49 49 50 50 50 49 49 48 48 47 46 45 44 43
43 44 44 43 43 42 42 41 41 40 40 40 40 40 40 40 40 40 41 41 41 41 42 42 42 43 43 43 42 42 42 42 41 42 42 41 41 42 42 43 43 44 44 45 46 47 47 46 46 47 49 51 54 55 55 55 55 54 53 52 51 51 53 52 51 51 51 51 50 50 49 48 49 49 50 50 49 49 48 48 47 46 45 44 43
44 43 42 43 42 41 41 41 40 40 40 40 39 39 39 39 40 40 40 40 41 41 41 42 42 43 43 43 43 42 41 41 42 42 42 42 43 42 43 43 44 44 44 44 44 44 45 45 46 47 47 49 52 53 55 55 55 54 53 52 52 52 50 52 53 49 48 50 50 49 50 50 51 51 50 49 49 49 49 48 47 46 45 43 42
43 43 42 41 42 41 41 41 41 41 39 39 39 39 39 39 40 40 40 41 41 40 41 41 41 41 41 41 40 40 40 40 41 41 41 41 41 41 42 42 42 41 41 42 43 44 44 44 44 44 46 47 49 51 53 53 53 52 52 52 52 51 51 52 53 52 48 49 50 51 50 50 50 50 49 49 48 48 48 48 47 47 45 43 41
44 42 41 41 41 40 40 40 40 41 40 39 39 39 39 39 39 40 40 39 39 39 38 38 38 39 39 39 39 39 41 42 42 42 41 42 41 40 39 39 39 39 39 39 40 42 42 43 43 44 45 45 47 49 49 49 49 52 53 52 51 52 50 50 50 50 50 50 50 50 51 52 52 52 52 52 52 49 49 48 48 47 45 43 41
42 41 41 40 40 39 39 38 38 40 39 40 43 42 42 41 40 39 39 39 38 38 38 38 37 38 38 38 41 41 42 42 41 40 39 39 40 41 40 39 38 39 39 39 39 39 40 40 41 43 43 43 44 46 48 50 51 51 51 50 50 50 47 49 49 48 49 50 50 50 51 51 51 51 51 52 52 51 51 49 50 48 45 42 41
41 41 40 39 38 39 39 38 37 38 39 39 40 38 38 39 39 39 38 38 38 38 38 37 37 37 37 37 37 39 41 41 40 39 38 38 38 38 39 40 41 40 39 38 39 39 40 40 41 42 43 43 44 45 46 48 49 49 49 48 50 47 48 48 49 48 47 49 50 50 50 49 50 50 50 51 51 49 50 49 46 45 44 42 40
41 41 39 38 39 38 38 37 36 38 38 40 38 38 38 38 39 40 38 37 37 37 37 37 37 37 36 36 37 38 38 38 37 37 38 38 37 37 37 37 37 37 38 39 38 38 38 38 39 39 41 42 43 44 45 45 47 49 49 49 49 49 48 48 49 50 46 49 49 49 50 47 49 50 50 49 49 49 49 47 45 43 43 41 40
41 39 38 38 38 37 37 36 36 38 37 39 38 38 38 37 37 38 36 36 36 36 36 36 36 36 36 36 35 36 36 38 39 37 37 37 38 37 37 38 37 37 36 36 37 39 38 38 38 38 39 40 41 42 44 45 46 47 47 48 48 48 48 48 49 49 42 48 49 48 48 47 47 47 48 49 49 48 47 44 43 42 42 41 40
39 38 37 37 37 37 36 36 36 36 36 38 37 37 37 36 36 36 36 35 35 35 35 35 35 34 34 34 34 34 34 35 35 35 35 35 35 35 35 35 35 36 36 36 36 37 38 38 38 37 38 40 40 42 45 46 47 47 47 47 47 47 47 48 47 43 43 48 49 48 47 45 45 46 46 48 47 46 46 44 43 42 41 41 40
37 37 37 36 36 37 37 35 34 34 35 37 36 36 36 36 35 36 35 35 35 35 34 34 34 34 34 34 33 33 33 33 35 36 35 35 34 34 34 34 34 34 34 35 35 35 36 38 39 39 39 40 41 43 44 47 49 49 49 49 48 48 47 41 42 42 43 47 49 48 47 46 43 45 45 46 45 46 45 41 41 41 41 40 40
37 37 36 36 37 36 36 33 34 33 33 35 35 35 35 35 35 35 35 34 33 33 33 33 33 33 33 33 33 32 33 33 35 35 36 35 34 33 33 33 33 34 34 36 37 37 37 36 36 37 39 42 41 44 45 46 47 46 45 45 47 46 45 44 45 38 41 44 47 48 47 46 43 44 45 44 43 42 43 43 40 40 40 40 39
36 36 36 36 36 35 34 33 32 31 31 34 34 34 34 34 35 34 34 33 33 32 32 32 32 32 32 32 32 32 32 32 34 34 34 35 33 33 33 33 33 34 34 36 37 36 36 36 36 36 36 36 36 36 37 38 39 40 39 41 41 45 45 45 45 41 41 41 44 47 47 45 41 43 43 41 41 41 40 41 41 40 40 40 39
35 35 35 35 35 35 34 33 32 30 30 33 35 34 34 34 35 34 33 33 32 32 32 32 32 32 32 35 36 33 33 33 34 34 34 35 33 33 32 32 33 33 33 34 35 36 37 37 36 36 36 36 36 36 37 37 38 38 38 39 42 45 45 45 45 43 41 40 42 46 45 45 40 42 40 36 37 37 40 40 40 41 39 39 38
35 34 36 34 33 33 33 33 37 35 31 32 34 34 34 34 35 33 33 32 32 31 32 31 32 32 32 33 35 34 33 34 33 33 34 34 33 32 32 32 32 32 33 34 35 35 35 36 36 37 37 38 38 38 39 38 38 39 40 40 43 46 45 45 45 43 41 39 40 45 45 41 40 41 40 36 36 38 39 38 39 40 40 39 39